Date String (YYYY-MM-DD hh:mm:ss) UTC,Instrument flags,absolute air pressure of the measurement (hPa),sample flow rate (lpm),inlet stack bypass flow (lpm),air temperature of the measurement (°C),ambient temperature measured by the external sensor (°C),aerosol sample conditioner tube jacket temperature (°C),OPC LED temperature (°C),internal box temperature (°C),relative humidity of the measurement (%),span deviation,mass concentration of particles derived from Lorenz-Mie calculation of OPC scattering (μg/m³),mass concentration of particles derived from Lorenz-Mie calculation of OPC scattering (μg/m³),mass concentration of particles derived from Lorenz-Mie calculation of OPC scattering (μg/m³)
DateTimeUTC,F1_M11,P_M11,Q1_M11,Q2_M11,T1_M11,T2_M11,T3_M11,T4_M11,T5_M11,U1_M11,ZSPAN_M11,X0_M11,X2_M11,X1_M11
2024-03-29 19:00:00,SystemResetWarning,0823.0,5.00,000.00,020.2,019.7,000.0,028.5,022.0,26.0,0000.0,0007.48,0003.49,0003.13
2024-03-29 19:01:00,SystemResetWarning,0823.0,5.00,000.00,020.2,019.7,000.0,028.5,022.0,25.5,0000.0,0007.61,0003.50,0003.15
2024-03-29 19:02:00,SystemResetWarning,0823.0,5.00,000.00,020.2,019.7,000.0,028.5,022.0,25.7,0000.0,0007.60,0003.50,0003.15
2024-03-29 19:03:00,SystemResetWarning,0823.0,5.00,000.00,020.2,019.7,000.0,028.5,022.0,25.8,0000.0,0007.64,0003.52,0003.16
2024-03-29 19:04:00,SystemResetWarning,0823.0,5.01,000.00,020.2,019.7,000.0,028.6,022.0,25.9,0000.0,0007.07,0003.54,0003.16
2024-03-29 19:05:00,SystemResetWarning,0822.9,5.00,000.00,020.2,019.7,000.0,028.6,022.0,25.5,0000.0,0007.06,0003.57,0003.17
2024-03-29 19:06:00,SystemResetWarning,0823.0,5.00,000.00,020.2,019.7,000.0,028.6,022.0,25.4,0000.0,0007.27,0003.59,0003.18
2024-03-29 19:07:00,SystemResetWarning,0822.9,5.00,000.00,020.3,019.7,000.0,028.6,022.0,25.7,0000.0,0007.26,0003.57,0003.16
2024-03-29 19:08:00,SystemResetWarning,0823.1,4.99,000.00,020.3,019.7,000.0,028.6,022.0,25.4,0000.0,0007.14,0003.54,0003.15
2024-03-29 19:09:00,SystemResetWarning,0822.9,5.00,000.00,020.3,019.7,000.0,028.6,022.0,25.3,0000.0,0006.94,0003.55,0003.14
2024-03-29 19:10:00,SystemResetWarning,0823.2,5.00,000.00,020.3,019.7,000.0,028.6,022.0,25.1,0000.0,0007.69,0003.56,0003.13
2024-03-29 19:11:00,SystemResetWarning,0823.0,4.99,000.00,020.3,019.7,000.0,028.6,022.0,25.5,0000.0,0008.43,0003.56,0003.11
2024-03-29 19:12:00,SystemResetWarning,0823.0,5.00,000.00,020.3,019.7,000.0,028.6,022.0,25.2,0000.0,0008.29,0003.53,0003.08
2024-03-29 19:13:00,SystemResetWarning,0823.0,5.01,000.00,020.3,019.7,000.0,028.7,022.0,25.1,0000.0,0008.21,0003.49,0003.04
2024-03-29 19:14:00,SystemResetWarning,0822.9,5.00,000.00,020.3,019.7,000.0,028.7,022.0,25.4,0000.0,0007.99,0003.46,0003.00
2024-03-29 19:15:00,SystemResetWarning,0822.9,4.98,000.00,020.3,019.7,000.0,028.7,022.0,25.6,0000.0,0007.88,0003.40,0002.95
2024-03-29 19:16:00,SystemResetWarning,0822.9,4.98,000.00,020.3,019.7,000.0,028.7,022.0,25.4,0000.0,0007.79,0003.37,0002.89
2024-03-29 19:17:00,SystemResetWarning,0823.0,5.01,000.00,020.3,019.7,000.0,028.7,022.0,25.1,0000.0,0007.71,0003.35,0002.85
2024-03-29 19:18:00,SystemResetWarning,0823.3,5.01,000.00,020.3,019.6,000.0,028.7,022.0,25.0,0000.0,0007.58,0003.31,0002.82
2024-03-29 19:19:00,SystemResetWarning,0823.2,5.00,000.00,020.3,019.6,000.0,028.7,022.0,25.1,0000.0,0007.43,0003.29,0002.80
2024-03-29 19:20:00,SystemResetWarning,0823.1,4.99,000.00,020.3,019.6,000.0,028.7,022.0,25.4,0000.0,0007.58,0003.27,0002.78
2024-03-29 19:21:00,SystemResetWarning,0823.0,5.00,000.00,020.3,019.6,000.0,028.7,022.0,25.2,0000.0,0008.15,0003.25,0002.74
2024-03-29 19:22:00,SystemResetWarning,0822.8,5.00,000.00,020.3,019.6,000.0,028.7,022.0,24.9,0000.0,0007.41,0003.23,0002.72
2024-03-29 19:23:00,SystemResetWarning,0822.9,5.02,000.00,020.3,019.6,000.0,028.7,022.0,24.9,0000.0,0007.49,0003.23,0002.73
2024-03-29 19:24:00,SystemResetWarning,0823.1,5.00,000.00,020.3,019.6,000.0,028.7,022.0,25.1,0000.0,0007.52,0003.24,0002.73
2024-03-29 19:25:00,SystemResetWarning,0823.1,4.99,000.00,020.3,019.6,000.0,028.7,022.0,25.4,0000.0,0007.57,0003.25,0002.72
2024-03-29 19:26:00,SystemResetWarning,0823.0,5.00,000.00,020.3,019.6,000.0,028.7,022.0,25.1,0000.0,0007.54,0003.30,0002.74
2024-03-29 19:27:00,SystemResetWarning,0822.9,5.00,000.00,020.3,019.6,000.0,028.7,022.0,25.6,0000.0,0007.64,0003.36,0002.77
2024-03-29 19:28:00,SystemResetWarning,0823.0,5.00,000.00,020.3,019.6,000.0,028.7,022.0,25.9,0000.0,0007.81,0003.35,0002.78
2024-03-29 19:29:00,SystemResetWarning,0823.0,5.00,000.00,020.3,019.5,000.0,028.7,022.0,25.7,0000.0,0008.18,0003.36,0002.79
2024-03-29 19:30:00,SystemResetWarning,0822.9,5.01,000.00,020.2,019.5,000.0,028.7,022.0,25.8,0000.0,0008.19,0003.35,0002.79
2024-03-29 19:31:00,SystemResetWarning,0822.8,5.01,000.00,020.2,019.5,000.0,028.7,022.0,25.6,0000.0,0008.28,0003.37,0002.78
2024-03-29 19:32:00,SystemResetWarning,0823.1,5.00,000.00,020.2,019.5,000.0,028.7,021.9,25.5,0000.0,0007.37,0003.37,0002.79
2024-03-29 19:33:00,SystemResetWarning,0823.1,4.98,000.00,020.2,019.5,000.0,028.7,021.9,25.4,0000.0,0007.65,0003.38,0002.81
2024-03-29 19:34:00,SystemResetWarning,0823.0,5.00,000.00,020.2,019.5,000.0,028.7,021.9,26.0,0000.0,0007.97,0003.40,0002.82
2024-03-29 19:35:00,SystemResetWarning,0822.9,5.01,000.00,020.2,019.5,000.0,028.7,021.9,25.6,0000.0,0008.35,0003.43,0002.83
2024-03-29 19:36:00,SystemResetWarning,0823.2,5.01,000.00,020.2,019.5,000.0,028.7,021.9,25.3,0000.0,0008.57,0003.43,0002.84
2024-03-29 19:37:00,SystemResetWarning,0823.0,5.00,000.00,020.2,019.5,000.0,028.7,021.9,25.5,0000.0,0009.68,0003.42,0002.85
2024-03-29 19:38:00,SystemResetWarning,0823.1,5.00,000.00,020.2,019.5,000.0,028.7,021.9,25.5,0000.0,0009.71,0003.39,0002.84
2024-03-29 19:39:00,SystemResetWarning,0823.0,5.01,000.00,020.2,019.5,000.0,028.7,021.9,25.5,0000.0,0010.06,0003.39,0002.85
2024-03-29 19:40:00,SystemResetWarning,0822.9,5.00,000.00,020.2,019.5,000.0,028.7,021.9,25.3,0000.0,0009.71,0003.41,0002.88
2024-03-29 19:41:00,SystemResetWarning,0822.9,5.00,000.00,020.2,019.4,000.0,028.7,021.9,25.7,0000.0,0009.86,0003.46,0002.93
2024-03-29 19:42:00,SystemResetWarning,0823.0,4.99,000.00,020.2,019.4,000.0,028.7,021.9,25.5,0000.0,0009.95,0003.50,0002.97
2024-03-29 19:43:00,SystemResetWarning,0822.8,4.99,000.00,020.2,019.4,000.0,028.7,021.9,25.5,0000.0,0009.77,0003.51,0003.00
2024-03-29 19:44:00,SystemResetWarning,0822.8,5.00,000.00,020.2,019.4,000.0,028.7,021.9,25.4,0000.0,0009.93,0003.55,0003.04
2024-03-29 19:45:00,SystemResetWarning,0823.0,4.99,000.00,020.2,019.4,000.0,028.7,021.9,25.6,0000.0,0009.39,0003.58,0003.09
2024-03-29 19:46:00,SystemResetWarning,0823.1,5.01,000.00,020.2,019.4,000.0,028.7,021.9,25.9,0000.0,0009.84,0003.57,0003.11
2024-03-29 19:47:00,SystemResetWarning,0823.2,5.01,000.00,020.1,019.4,000.0,028.7,021.9,25.6,0000.0,0009.97,0003.60,0003.14
2024-03-29 19:48:00,SystemResetWarning,0822.8,5.00,000.00,020.1,019.4,000.0,028.7,021.9,25.7,0000.0,0009.21,0003.65,0003.18
2024-03-29 19:49:00,SystemResetWarning,0822.8,5.00,000.00,020.1,019.4,000.0,028.7,021.9,25.5,0000.0,0008.80,0003.70,0003.23
2024-03-29 19:50:00,SystemResetWarning,0822.8,4.99,000.00,020.2,019.4,000.0,028.7,021.9,25.4,0000.0,0008.55,0003.75,0003.27
2024-03-29 19:51:00,SystemResetWarning,0823.1,4.99,000.00,020.2,019.5,000.0,028.7,021.9,25.5,0000.0,0008.71,0003.80,0003.30
2024-03-29 19:52:00,SystemResetWarning,0823.1,5.00,000.00,020.2,019.5,000.0,028.7,021.9,25.7,0000.0,0008.67,0003.81,0003.31
2024-03-29 19:53:00,SystemResetWarning,0822.9,5.00,000.00,020.2,019.5,000.0,028.7,021.9,25.7,0000.0,0008.55,0003.81,0003.33
2024-03-29 19:54:00,SystemResetWarning,0822.8,5.01,000.00,020.2,019.5,000.0,028.7,021.9,25.5,0000.0,0008.73,0003.87,0003.37
2024-03-29 19:55:00,SystemResetWarning,0823.0,5.00,000.00,020.2,019.5,000.0,028.7,021.9,25.4,0000.0,0008.51,0003.90,0003.41
2024-03-29 19:56:00,SystemResetWarning,0823.0,5.00,000.00,020.2,019.5,000.0,028.7,021.9,25.7,0000.0,0008.56,0003.91,0003.43
2024-03-29 19:57:00,SystemResetWarning,0823.0,5.00,000.00,020.2,019.5,000.0,028.7,021.9,25.5,0000.0,0008.24,0003.95,0003.45
2024-03-29 19:58:00,SystemResetWarning,0823.0,5.00,000.00,020.2,019.5,000.0,028.7,021.9,25.6,0000.0,0008.11,0003.96,0003.46
2024-03-29 19:59:00,SystemResetWarning,0823.0,4.99,000.00,020.2,019.5,000.0,028.7,021.9,25.9,0000.0,0008.59,0003.96,0003.47
